Flag for Russia Weather past 2 weeks in Yuzhno-Sakhalinsk, Russia

Now
14 °F

Passing clouds.


Feels Like: 8 °F
Forecast: 13 / 26 °F
Wind: 3 mph from Northeast

Location: Yuzhno Airport-Sakhalinsk

Current Time: Dec 19, 2014 at 2:36:43 AM

Latest Report: Dec 19, 2014 at 2:00 AM


Visibility: 5 mi

Pressure: 30.09 "Hg

Humidity: 100%

Dew point: 14 °F

Location of Yuzhno-SakhalinskLocation

Historic Weather in Yuzhno-Sakhalinsk — Graph

°F

Yuzhno-Sakhalinsk temperature yesterday

Maximum temperature yesterday: 28 °F (at 12:00 AM)
Minimum temperature yesterday: 18 °F (at 11:00 PM)
Average temperature yesterday: 27 °F

Past Weeks' High & Low Weather Summary

 TemperatureHumidityPressure
High32 °F (Dec 11, 3:30 PM)100% (Dec 11, 1:30 PM)30.24 "Hg (Dec 11, 1:30 PM)
Low-6 °F (Dec 16, 1:00 AM)50% (Dec 8, 12:30 PM)29.03 "Hg (Dec 17, 2:00 PM)
Average17 °F81%29.78 "Hg
* Reported Dec 4 1:00 AM — Dec 19 1:30 AM, Yuzhno-Sakhalinsk, Weather by CustomWeather, © 2014

Note: Actual official high and low records may vary slightly from our data, if they occured in-between our weather recording intervals... More about our weather records

Advertising

Yuzhno-Sakhalinsk weather history for previous 24 hours

 ConditionsComfort  
Time TempWeatherWind HumidityBarometerVisibility
1:30 AM
Dec 19
7 °FPassing clouds.No wind92%30.09 "Hg4 mi
1:00 AM10 °FPassing clouds.No wind85%30.07 "Hg4 mi
12:30 AM14 °FPassing clouds.No wind92%30.07 "Hg4 mi
12:00 AM16 °FPassing clouds.3 mph100%30.07 "HgN/A
11:30 PM
Dec 18
18 °FPassing clouds.3 mph93%30.07 "HgN/A
11:00 PM18 °FPassing clouds.3 mph86%30.07 "HgN/A
10:30 PM23 °FPassing clouds.6 mph80%30.04 "HgN/A
10:00 PM25 °FPassing clouds.3 mph80%30.04 "HgN/A
9:30 PM25 °FSnow flurries. Passing clouds.6 mph80%30.04 "Hg3 mi
9:00 PM25 °FSnow flurries. Passing clouds.8 mph80%30.04 "Hg3 mi
8:30 PM27 °FSnow flurries. Passing clouds.10 mph64%30.01 "HgN/A
8:00 PM27 °FSnow flurries. Passing clouds.10 mph69%30.01 "HgN/A
7:30 PM27 °FPassing clouds.8 mph69%29.98 "HgN/A
7:00 PM27 °FPassing clouds.8 mph69%29.98 "HgN/A
6:30 PM27 °FPassing clouds.10 mph69%29.95 "HgN/A
6:00 PM28 °FPassing clouds.13 mph64%29.95 "HgN/A
5:30 PM27 °FSnow flurries. Passing clouds.15 mph74%29.92 "HgN/A
5:00 PM28 °FSnow flurries. Passing clouds.15 mph69%29.89 "Hg3 mi
4:30 PM28 °FPartly sunny.13 mph69%29.86 "Hg5 mi
4:00 PM28 °FSnow flurries. Partly sunny.17 mph69%29.86 "Hg3 mi
3:30 PM28 °FSnow flurries. Partly sunny.17 mph69%29.83 "Hg4 mi
3:00 PM28 °FSnow showers. Mostly cloudy.22 mph74%29.80 "Hg2 mi
2:30 PM28 °FSnow showers. Overcast.22 mph74%29.77 "Hg1 mi
2:00 PM27 °FBlizzard. Ice fog.22 mph86%29.74 "Hg1 mi
1:30 PM27 °FBlizzard. Ice fog.29 mph86%29.74 "Hg0 mi
1:00 PM27 °FBlizzard. Ice fog.24 mph93%29.74 "Hg1 mi
12:30 PM27 °FBlizzard. Ice fog.26 mph93%29.74 "Hg0 mi
12:00 PM27 °FBlizzard. Ice fog.24 mph93%29.71 "Hg0 mi
11:30 AM27 °FBlizzard. Ice fog.26 mph93%29.71 "Hg0 mi
11:00 AM27 °FBlizzard. Ice fog.26 mph93%29.68 "Hg0 mi
10:30 AM27 °FBlizzard. Ice fog.29 mph93%29.68 "Hg1 mi
10:00 AM27 °FBlizzard. Ice fog.26 mph86%29.65 "Hg1 mi
9:30 AM27 °FSnow showers. Partly sunny.22 mph86%29.62 "Hg1 mi
9:00 AM28 °FPassing clouds.22 mph69%29.62 "Hg5 mi
8:30 AM28 °FPassing clouds.24 mph69%29.59 "Hg5 mi
8:00 AM28 °FPartly cloudy.20 mph64%29.59 "Hg4 mi
7:30 AM28 °FSnow flurries. Partly cloudy.22 mph64%29.56 "Hg2 mi
7:00 AM28 °FSnow showers. Passing clouds.15 mph80%29.53 "Hg1 mi
6:30 AM28 °FSnow showers. Passing clouds.17 mph74%29.50 "Hg1 mi
6:00 AM28 °FSnow showers. Passing clouds.22 mph74%29.47 "Hg1 mi
5:30 AM27 °FSnow showers. Ice fog.20 mph93%29.45 "Hg1 mi
5:00 AM28 °FSnow showers. Ice fog.20 mph80%29.45 "Hg1 mi
4:00 AM28 °FBlizzard. Ice fog.20 mph86%29.39 "Hg1 mi
3:00 AM28 °FBlizzard. Ice fog.22 mph93%29.36 "Hg1 mi
2:00 AM28 °FBlizzard. Ice fog.22 mph93%29.33 "Hg1 mi
Weather by CustomWeather, © 2014

See weather overviewHow to use our weather pages